#timestamp,LO_Frequency,Hit 
1499112015.5,286047073.3,N
1499112035.3,286047075.9,N
1499112055.1,286047073.4,N
1499112075.9,286047073.8,N
1499112095.7,286047077.4,N
1499112115.5,286047075.6,N
1499112135.4,286047076.8,N
1499112155.2,286047077.4,N
1499112175.0,286047076.9,N
1499112175.9,286047076.9,N
1499112195.8,286047076.5,N
1499112215.6,286047078.4,N
1499112235.4,286047080.0,N
1499112255.3,286047079.4,N
1499112275.1,286047079.1,N
1499112276.0,286047079.1,N
1499112295.8,286047080.8,N
1499112315.7,286047080.8,N
1499112335.5,286047078.7,N
1499112355.3,286047081.2,N
1499112375.1,286047076.5,N
1499112395.9,286047076.7,N
1499112415.7,286047081.2,N
1499112435.5,286047080.1,N
1499112455.4,286047080.8,N
1499112475.2,286047079.1,N
1499112495.0,286047080.4,N
1499112495.9,286047080.4,N
1499112515.8,286047080.4,N
1499112535.6,286047081.9,N
1499112555.4,286047081.5,N
1499112575.3,286047081.4,N
1499112595.1,286047084.4,N
1499112596.0,286047084.4,N
1499112615.8,286047084.3,N
1499112635.7,286047083.9,N
1499112655.5,286047084.3,N
1499112675.3,286047083.0,N
1499112695.2,286047083.1,N
1499112715.9,286047083.0,N
1499112735.7,286047083.0,N
1499112755.5,286047084.2,N
1499112775.4,286047084.2,N
1499112795.2,286047085.9,N
1499112815.0,286047086.0,N
1499112815.9,286047086.0,N
1499112835.8,286047085.5,N
1499112855.6,286047085.1,N
1499112875.4,286047087.1,N
1499112895.3,286047087.6,N
1499112915.1,286047085.8,N
1499112935.8,286047085.2,N
1499112955.7,286047086.3,N
1499112975.5,286047084.9,N
1499112995.3,286047085.6,N
1499113015.2,286047085.5,N
1499113035.9,286047084.6,N
1499113055.7,286047087.1,N
1499113075.6,286047087.1,N
1499113095.4,286047088.3,N
1499113115.2,286047088.9,N
1499113135.0,286047088.5,N
1499113135.9,286047088.5,N
1499113155.8,286047086.6,N
1499113175.6,286047086.5,N
1499113195.4,286047088.4,N
1499113215.3,286047087.7,N
1499113235.1,286047090.3,N
1499113255.8,286047088.6,N
1499113275.7,286047086.2,N
1499113295.5,286047086.2,N
1499113315.3,286047086.5,N
1499113335.2,286047088.0,N
1499113355.9,286047086.9,N
1499113375.7,286047089.2,N
1499113395.6,286047089.6,N
1499113415.4,286047090.1,N
1499113435.2,286047090.3,N
1499113455.0,286047089.5,N
1499113455.9,286047089.5,N
1499113475.8,286047092.3,N
1499113495.6,286047093.1,N
1499113515.4,286047093.4,N
1499113535.3,286047092.2,N
1499113555.1,286047092.4,N
1499113575.8,286047091.6,N
1499113595.7,286047091.3,N
1499113615.5,286047093.8,N
1499113635.3,286047091.1,N
1499113655.2,286047089.3,N
1499113675.9,286047091.0,N
1499113695.7,286047092.8,N
1499113715.6,286047095.1,N
1499113735.4,286047093.5,N
1499113755.2,286047095.6,N
1499113775.0,286047095.1,N
1499113776.0,286047095.1,N
1499113795.8,286047093.8,N
1499113815.6,286047095.1,N
1499113835.4,286047092.5,N
1499113855.3,286047095.1,N
1499113875.1,286047093.1,N
1499113895.8,286047093.8,N
1499113915.7,286047095.3,N
1499113935.5,286047094.8,N
1499113955.3,286047095.1,N
1499113975.2,286047097.0,N
1499113995.9,286047096.3,N
1499114015.7,286047098.8,N
1499114035.6,286047095.8,N
1499114055.4,286047096.1,N
1499114075.2,286047097.0,N
1499114095.0,286047098.5,N
1499114096.0,286047098.5,N
1499114115.8,286047097.6,N
1499114135.6,286047097.5,N
1499114155.4,286047098.1,N
1499114175.3,286047097.9,N
1499114195.1,286047098.5,N
1499114215.8,286047096.2,N
1499114235.7,286047100.3,N
1499114255.5,286047098.9,N
1499114275.3,286047100.1,N
1499114295.2,286047099.7,N
1499114315.9,286047101.2,N
1499114335.7,286047101.4,N
1499114355.6,286047101.7,N
1499114375.4,286047099.0,N
1499114395.2,286047101.6,N
1499114415.0,286047101.5,N
1499114416.0,286047101.5,N
1499114435.8,286047103.2,N
1499114455.6,286047101.8,N
1499114475.4,286047101.8,N
1499114495.3,286047101.1,N
1499114515.1,286047101.5,N
1499114535.8,286047102.0,N
1499114555.7,286047099.5,N
1499114575.5,286047102.0,N
1499114595.3,286047101.2,N
1499114615.2,286047101.0,N
1499114635.9,286047103.2,N
1499114655.7,286047104.6,N
1499114675.6,286047105.0,N
1499114695.4,286047102.7,N
1499114715.2,286047106.5,N
1499114735.1,286047104.1,N
1499114736.0,286047104.1,N
1499114755.8,286047105.4,N
1499114775.6,286047105.7,N
1499114795.4,286047106.4,N
1499114815.3,286047103.9,N
1499114835.1,286047104.6,N
1499114855.8,286047106.4,N
1499114875.7,286047103.8,N
1499114895.5,286047104.0,N
1499114915.3,286047104.3,N
1499114935.2,286047106.0,N
1499114955.9,286047105.7,N
1499114975.7,286047109.9,N
1499114995.6,286047107.6,N
1499115015.4,286047108.0,N
1499115035.2,286047107.4,N
1499115055.1,286047106.9,N
1499115056.0,286047106.9,N
1499115075.8,286047109.7,N
1499115095.6,286047108.6,N
1499115115.4,286047109.0,N
1499115135.3,286047108.9,N
1499115155.1,286047111.2,N
1499115175.8,286047109.1,N
1499115195.7,286047109.1,N
1499115215.5,286047109.4,N
1499115235.3,286047111.5,N
1499115255.2,286047108.7,N
1499115275.9,286047108.7,N
1499115295.7,286047109.4,N
1499115315.6,286047109.0,N
1499115335.4,286047110.8,N
1499115355.2,286047111.1,N
1499115375.1,286047110.8,N
1499115376.0,286047110.8,N
1499115395.8,286047110.7,N
1499115415.6,286047110.4,N
1499115435.5,286047112.7,N
1499115455.3,286047112.8,N
1499115475.1,286047110.7,N
1499115495.9,286047112.3,N
1499115515.7,286047114.8,N
1499115535.5,286047112.3,N
1499115555.3,286047114.3,N
1499115575.2,286047113.8,N
1499115595.0,286047114.5,N
1499115595.9,286047114.5,N
